Back to catalog

COSMOS 2251 DEB

AliveLEO
NORAD 33816·DEBRIS·🇷🇺 Russia

Launched Jun 16, 1993 from Plesetsk Cosmodrome

Loading…

Next Passes (next 24 hours)

TLE

FreshSource: Space-Track

Epoch: Sep 14, 2026, 05:23 UTC

1 33816U 93036BH  26257.22476146  .00000293  00000-0  22584-3 0  9994
2 33816  73.8975 358.2853 0265918 319.2168  38.9313 13.82141177884795

Track COSMOS 2251 DEB in real time with AllMySat

Download on the App Store